Easton, MD

2:44 PM EDT on June 28, 2017 (GMT -0400)
Easton / Newnam

Weather History for KESN - May, 2012

Change the Weather History Date:

Thursday, May 10, 2012

  Actual Average Record
Temperature  
Mean Temperature 62 °F -  
Max Temperature 73 °F 71 °F 93 °F (1963)
Min Temperature 50 °F 48 °F 35 °F (1966)
Degree Days  
Heating Degree Days 4    
Growing Degree Days 12 (Base 50)    
Moisture  
Dew Point 50 °F    
Average Humidity 78    
Maximum Humidity 100    
Minimum Humidity 41    
Precipitation  
Precipitation 0.07 in - - ()
Sea Level Pressure  
Sea Level Pressure 29.74 in    
Wind  
Wind Speed 6 mph (NW)    
Max Wind Speed 20 mph    
Max Gust Speed 30 mph    
Visibility 8 miles    
Events Rain    
Averages and records for this station are not official NWS values.
T = Trace of Precipitation, MM = Missing Value Source: NWS Daily Summary

Daily Weather History Graph

Daily Weather History Graph

Search for Another Location

Airport or City:

Trip Planner

Search our weather history database for the weather conditions in past years. The results will help you decide how hot, cold, wet, or windy it might be!

Date:

Astronomy

May. 10, 2012 Rise Set
Actual Time 5:56 AM EDT 8:05 PM EDT
Civil Twilight 5:26 AM EDT 8:35 PM EDT
Nautical Twilight 4:50 AM EDT 9:11 PM EDT
Astronomical Twilight 4:11 AM EDT 9:51 PM EDT
Moon 12:02 AM EDT (5/10) 10:18 AM EDT (5/10)
Length of Visible Light 15h 08m
Length of Day
14h 09m
Waning Gibbous, 73% of the Moon is Illuminated
May 10
Waning Gibbous
May 12
Last Quarter
May 20
New
May 28
First Quarter
Jun 4
Full

Hourly Weather History & Observations

Time (EDT) Temp. Dew Point Humidity Pressure Visibility Wind Dir Wind Speed Gust Speed Precip Events Conditions
12:09 AM 57.2 °F 57.2 °F 100% 29.65 in 7.0 mi North 3.5 mph - N/A Rain Light Rain
12:30 AM 55.4 °F 55.4 °F 100% 29.66 in 5.0 mi NNW 3.5 mph - N/A Rain Rain
12:51 AM 55.4 °F 55.4 °F 100% 29.65 in 7.0 mi North 4.6 mph - 0.04 in Rain Light Rain
1:33 AM 55.4 °F 55.4 °F 100% 29.65 in 10.0 mi NNW 6.9 mph - N/A Rain Rain
1:57 AM 55.4 °F 55.4 °F 100% 29.64 in 10.0 mi Calm Calm - N/A   Light Drizzle
2:18 AM 55.4 °F 55.4 °F 100% 29.64 in 7.0 mi Calm Calm - 0.01 in Rain Light Rain
2:39 AM 55.4 °F 55.4 °F 100% 29.64 in 7.0 mi Calm Calm - 0.02 in Rain Light Rain
3:00 AM 55.4 °F 55.4 °F 100% 29.63 in 7.0 mi Calm Calm - N/A Rain Light Rain
3:21 AM 55.4 °F 55.4 °F 100% 29.64 in 5.0 mi West 4.6 mph - N/A   Clear
3:42 AM 55.4 °F 55.4 °F 100% 29.63 in 5.0 mi Calm Calm - N/A   Clear
4:03 AM 55.4 °F 55.4 °F 100% 29.63 in 5.0 mi West 3.5 mph - N/A   Clear
4:24 AM 55.4 °F 55.4 °F 100% 29.63 in 5.0 mi Calm Calm - N/A   Scattered Clouds
4:45 AM 55.4 °F 55.4 °F 100% 29.63 in 4.0 mi Calm Calm - 0.01 in   Clear
5:06 AM 53.6 °F 53.6 °F 100% 29.64 in 2.0 mi West 3.5 mph - N/A   Mist
5:30 AM 55.4 °F 55.4 °F 100% 29.64 in 5.0 mi WNW 4.6 mph - N/A   Clear
5:50 AM 55.4 °F 55.4 °F 100% 29.65 in 4.0 mi NW 6.9 mph - N/A   Scattered Clouds
5:51 AM 53.6 °F 53.6 °F 100% 29.65 in 5.0 mi WNW 5.8 mph - N/A   Clear
6:50 AM 57.2 °F 57.2 °F 100% 29.68 in 7.0 mi NW 11.5 mph 17.3 mph N/A   Partly Cloudy
7:50 AM 57.2 °F 55.4 °F 94% 29.70 in 10.0 mi NW 12.7 mph 17.3 mph N/A   Scattered Clouds
8:53 AM 59.0 °F 51.8 °F 77% 29.72 in 10.0 mi NNW 19.6 mph 29.9 mph N/A   Scattered Clouds
9:53 AM 60.8 °F 50.0 °F 68% 29.73 in 10.0 mi NNW 15.0 mph 28.8 mph N/A   Clear
10:53 AM 62.6 °F 50.0 °F 63% 29.74 in 10.0 mi NNW 13.8 mph 25.3 mph N/A   Scattered Clouds
11:53 AM 64.4 °F 48.2 °F 56% 29.75 in 10.0 mi NW 19.6 mph 27.6 mph N/A   Scattered Clouds
12:53 PM 66.2 °F 44.6 °F 46% 29.75 in 10.0 mi NW 18.4 mph 29.9 mph N/A   Scattered Clouds
1:53 PM 66.2 °F 44.6 °F 46% 29.76 in 10.0 mi NW 19.6 mph 25.3 mph N/A   Scattered Clouds
1:56 PM 73.4 °F 48.2 °F 41% 29.81 in 10.0 mi NW 9.2 mph 17.3 mph N/A   Scattered Clouds
2:50 PM 66.2 °F 46.4 °F 49% 29.77 in 10.0 mi NW 16.1 mph 23.0 mph N/A   Mostly Cloudy
3:50 PM 68.0 °F 46.4 °F 46% 29.77 in 10.0 mi NNW 16.1 mph 21.9 mph N/A   Scattered Clouds
4:50 PM 68.0 °F 44.6 °F 43% 29.79 in 10.0 mi WNW 16.1 mph 23.0 mph N/A   Scattered Clouds
5:55 PM 66.2 °F 42.8 °F 43% 29.81 in 10.0 mi NW 15.0 mph 23.0 mph N/A   Scattered Clouds
6:50 PM 64.4 °F 41.0 °F 42% 29.84 in 10.0 mi WNW 10.4 mph 19.6 mph N/A   Scattered Clouds
7:50 PM 62.6 °F 42.8 °F 48% 29.87 in 10.0 mi NNW 15.0 mph 23.0 mph N/A   Scattered Clouds
8:50 PM 59.0 °F 39.2 °F 48% 29.91 in 10.0 mi NNW 10.4 mph 20.7 mph N/A   Scattered Clouds
10:30 PM 55.4 °F 41.0 °F 58% 29.95 in 10.0 mi Calm Calm - N/A   Clear
10:51 PM 51.8 °F 42.8 °F 71% 29.95 in 10.0 mi Calm Calm - N/A   Clear
11:12 PM 51.8 °F 42.8 °F 71% 29.96 in 10.0 mi Calm Calm - N/A   Clear
11:33 PM 50.0 °F 42.8 °F 76% 29.96 in 10.0 mi Calm Calm - N/A   Clear
11:54 PM 50.0 °F 42.8 °F 76% 29.97 in 10.0 mi Calm Calm - N/A   Clear